Regional Weather Roundup
Issued by NWS Sioux Falls, SD

Home | Current Version | Previous Version | Graphics & Text | Print | Product List | Glossary Off
Versions: 1 2 3 4 5 6 7 8 9 10 11 12 13 14 15 16 17 18 19 20 21 22 23 24 25 26 27 28 29 30 31 32 33 34 35 36 37 38 39 40 41 42 43 44 45 46 47 48 49 50

000
ASUS43 KFSD 060802
RWRFSD

WEATHER ROUNDUP FOR SE SOUTH DAKOTA/SW MINNESOTA/NW IOWA
NATIONAL WEATHER SERVICE SIOUX FALLS SD
300 AM CDT MON JUL 06 2015

NOTE: "FAIR" INDICATES FEW OR NO CLOUDS BELOW 12,000 FEET WITH NO
SIGNIFICANT WEATHER AND OR OBSTRUCTIONS TO VISIBILITY.


SDZ038>040-050-052>070-060900-
SOUTHEAST SOUTH DAKOTA

CITY           SKY/WX    TMP DP  RH WIND       PRES   REMARKS
BROOKINGS      CLOUDY    68  64  88 NW9       29.88R
CHAMBERLAIN    LGT RAIN  66  65  99 N14       29.92S
HURON          RAIN      67  67 100 N7        29.89R FOG
MADISON        HVY RAIN  66  66 100 NW7       29.89S
MITCHELL       CLOUDY    70  69  97 NE8       29.88R
SIOUX FALLS    RAIN      71  70  96 N8        29.86R FOG
WINNER         LGT RAIN  67  65  93 N14       29.94R
YANKTON        CLOUDY    70  66  88 CALM      29.83S
$$

MNZ071-072-080-081-089-090-097-098-060900-
SOUTHWEST MINNESOTA

CITY           SKY/WX    TMP DP  RH WIND       PRES   REMARKS
FAIRMONT       CLOUDY    75  66  73 SW14G20   29.77R
JACKSON        CLOUDY    73  70  88 N8        29.81R
MARSHALL       CLOUDY    70  63  78 NW10        N/A
PIPESTONE      HVY RAIN  70  66  88 N5        29.83R
REDWOOD FALLS  RAIN      70  68  93 NE6       29.79S FOG
WINDOM         TSTM      70  68  94 E5G30     29.80F
WORTHINGTON    CLOUDY    70  66  88 N8        29.84R
$$

IAZ001>003-012>014-020>022-031-032-NEZ013-014-SDZ071-060900-
NORTHWEST IOWA

CITY           SKY/WX    TMP DP  RH WIND       PRES   REMARKS
DENISON        RAIN      70  68  94 S16G24    29.80F
ESTHERVILLE    CLOUDY    75  72  90 S10G21    29.78R
SIOUX CITY     RAIN      73  69  87 NW16      29.83R FOG
SPENCER        CLOUDY    78  63  59 S17G24    29.77R
$$

ABBREVIATIONS USED IN REMARKS
   TC - TEMPERATURE IN CELSIUS
  WCI - WIND CHILL INDEX
   HX - HEAT INDEX
  VSB - VISIBILITY



USA.gov is the U.S. government's official web portal to all federal, state and local government web resources and services.